sat.trackr.live / text

‹ back to catalog

STARLINK-36446

NORAD 67412 · 2026-005J

PAYLOAD ACTIVE UNKNOWN

§ Identity

Operator
Country
US
Launch date
2026-01-12
Launch site
AFETR
Launch vehicle
Mass (kg)
RCS (m²)

Purposes: comms

External: N2YO · Heavens-Above · Gunter

§ Orbital elements

Epoch: 2026-05-25T02:33:14.343264Z

Period
94.27 min
Inclination
42.9969°
Eccentricity
0.0000692
Mean motion
15.27591822 rev/d
Perigee alt
482.5 km
Apogee alt
483.5 km
Semi-major
6,861.2 km
B*
5.7401e-4
RAAN
166.4061°
Arg perigee
242.9923°
Mean anomaly
117.0858°
Rev number
2,038

§ Raw data

STARLINK-364461 67412U 26005J   26145.10641601  .00015573  00000+0  57401-3 0  99902 67412  42.9969 166.4061 0000692 242.9923 117.0858 15.27591822 20388

JSON: /api/v1/satellites/67412 · /tle

For live sub-satellite position, see the globe view (requires WebGL).

§ Visibility from observer

Set your observer location to see the next 7 days of passes ≥ 10°. The values pass through the URL so the page stays shareable.

No JS? Fill the form by hand. The geolocation button needs JavaScript.